Time,TemperatureF,DewpointF,PressureIn,WindDirection,WindDirectionDegrees,WindSpeedMPH,WindSpeedGustMPH,Humidity,HourlyPrecipIn,Conditions,Clouds,dailyrainin,SoftwareType,DateUTC
2013-10-04 01:31:00,74.0,69.0,30.01,SE,127,0.0,0.0,85,0.00,,,1.97,,2013-10-04 05:31:00,
2013-10-04 01:59:00,74.0,69.0,30.01,SE,127,0.0,0.0,85,0.00,,,1.97,,2013-10-04 05:59:00,
2013-10-04 02:08:00,74.0,69.0,30.01,SE,127,0.0,0.0,85,0.00,,,1.97,,2013-10-04 06:08:00,
2013-10-04 02:27:00,73.0,68.0,30.00,SE,127,0.0,0.0,85,0.00,,,1.97,,2013-10-04 06:27:00,
2013-10-04 02:58:00,73.0,68.0,30.00,SE,127,0.0,0.0,85,0.00,,,1.97,,2013-10-04 06:58:00,
2013-10-04 03:27:00,73.0,69.0,30.00,SE,127,0.0,0.0,86,0.00,,,1.97,,2013-10-04 07:27:00,
2013-10-04 03:58:00,73.0,68.0,29.99,SE,127,0.0,0.0,85,0.00,,,1.97,,2013-10-04 07:58:00,
2013-10-04 04:17:00,73.0,68.0,29.99,SE,127,0.0,0.0,85,0.00,,,1.97,,2013-10-04 08:17:00,
2013-10-04 04:27:00,73.0,68.0,29.99,SE,127,0.0,0.0,85,0.00,,,1.97,,2013-10-04 08:27:00,
2013-10-04 04:59:00,72.0,67.0,29.98,SE,127,0.0,0.0,85,0.00,,,1.97,,2013-10-04 08:59:00,
2013-10-04 05:28:00,72.0,67.0,29.98,SE,127,0.0,0.0,85,0.00,,,1.97,,2013-10-04 09:28:00,
2013-10-04 06:00:00,72.0,67.0,29.98,SE,127,0.0,0.0,85,0.00,,,1.97,,2013-10-04 10:00:00,
2013-10-04 06:29:00,73.0,69.0,29.98,SE,127,0.0,1.0,86,0.00,,,1.97,,2013-10-04 10:29:00,
2013-10-04 06:40:00,73.0,69.0,29.98,SE,127,0.0,1.0,86,0.00,,,1.97,,2013-10-04 10:40:00,
2013-10-04 06:58:00,72.0,67.0,29.98,SE,127,0.0,0.0,85,0.00,,,1.97,,2013-10-04 10:58:00,
2013-10-04 07:12:00,72.0,67.0,29.98,SE,127,0.0,0.0,85,0.00,,,1.97,,2013-10-04 11:12:00,
2013-10-04 07:29:00,72.0,68.0,29.99,SE,127,0.0,0.0,86,0.00,,,1.97,,2013-10-04 11:29:00,
2013-10-04 08:00:00,72.0,68.0,30.00,SE,127,0.0,0.0,86,0.00,,,1.97,,2013-10-04 12:00:00,
2013-10-04 08:29:00,72.0,68.0,30.01,SE,127,0.0,0.0,86,0.00,,,1.97,,2013-10-04 12:29:00,
2013-10-04 08:57:00,73.0,69.0,30.02,SE,127,0.0,1.0,86,0.00,,,1.97,,2013-10-04 12:57:00,
2013-10-04 09:28:00,74.0,70.0,30.02,SE,126,0.0,1.0,86,0.00,,,1.97,,2013-10-04 13:28:00,
2013-10-04 10:00:00,75.0,71.0,30.03,SE,125,0.0,1.0,86,0.00,,,1.97,,2013-10-04 14:00:00,
2013-10-04 10:29:00,76.0,71.0,30.03,NE,54,0.0,1.0,85,0.00,,,1.97,,2013-10-04 14:29:00,
2013-10-04 11:00:00,78.0,72.0,30.04,NE,38,0.0,1.0,83,0.00,,,1.97,,2013-10-04 15:00:00,
2013-10-04 11:09:00,78.0,72.0,30.04,NE,38,0.0,1.0,83,0.00,,,1.97,,2013-10-04 15:09:00,
2013-10-04 11:29:00,81.0,76.0,30.04,SE,126,0.0,3.0,85,0.00,,,1.97,,2013-10-04 15:29:00,
2013-10-04 11:38:00,81.0,76.0,30.04,SE,126,0.0,3.0,85,0.00,,,1.97,,2013-10-04 15:38:00,
2013-10-04 11:50:00,81.0,76.0,30.04,SE,126,0.0,3.0,85,0.00,,,1.97,,2013-10-04 15:50:00,
2013-10-04 11:58:00,84.0,76.0,30.04,NE,34,0.0,4.0,76,0.00,,,1.97,,2013-10-04 15:58:00,
2013-10-04 12:12:00,84.0,76.0,30.04,NE,34,0.0,4.0,76,0.00,,,1.97,,2013-10-04 16:12:00,
2013-10-04 12:29:00,87.0,77.0,30.03,NE,49,0.0,4.0,72,0.00,,,1.97,,2013-10-04 16:29:00,
2013-10-04 12:39:00,87.0,77.0,30.03,NE,49,0.0,4.0,72,0.00,,,1.97,,2013-10-04 16:39:00,
2013-10-04 13:01:00,87.0,76.0,30.02,East,95,2.0,3.0,69,0.00,,,1.97,,2013-10-04 17:01:00,
2013-10-04 13:22:00,88.0,76.0,30.02,ENE,65,0.0,3.0,68,0.00,,,1.97,,2013-10-04 17:22:00,
2013-10-04 13:29:00,88.0,76.0,30.02,ENE,65,0.0,3.0,68,0.00,,,1.97,,2013-10-04 17:29:00,
2013-10-04 14:05:00,88.0,74.0,30.00,ESE,109,0.0,4.0,64,0.00,,,1.97,,2013-10-04 18:05:00,
2013-10-04 14:31:00,88.0,75.0,29.98,ENE,57,0.0,0.0,65,0.00,,,1.97,,2013-10-04 18:31:00,
2013-10-04 14:50:00,89.0,74.0,29.98,NE,56,0.0,3.0,62,0.00,,,1.97,,2013-10-04 18:50:00,
2013-10-04 14:56:00,89.0,75.0,29.98,NNE,24,0.0,3.0,63,0.00,,,1.63,,2013-10-04 18:56:00,
2013-10-04 15:22:00,88.0,76.0,29.97,NE,35,0.0,3.0,67,0.00,,,1.07,,2013-10-04 19:22:00,
2013-10-04 15:32:00,88.0,76.0,29.97,NE,35,0.0,3.0,67,0.00,,,1.07,,2013-10-04 19:32:00,
2013-10-04 15:52:00,88.0,76.0,29.97,SE,127,0.0,5.0,67,0.00,,,1.07,,2013-10-04 19:52:00,
2013-10-04 16:22:00,89.0,75.0,29.97,NE,36,0.0,6.0,64,0.00,,,0.10,,2013-10-04 20:22:00,
2013-10-04 16:52:00,88.0,74.0,29.96,SSE,150,0.0,0.0,64,0.00,,,0.04,,2013-10-04 20:52:00,
2013-10-04 17:22:00,87.0,73.0,29.96,East,94,0.0,0.0,64,0.00,,,0.02,,2013-10-04 21:22:00,
2013-10-04 17:33:00,87.0,73.0,29.96,East,94,0.0,0.0,64,0.00,,,0.02,,2013-10-04 21:33:00,
2013-10-04 17:54:00,85.0,75.0,29.96,East,94,0.0,0.0,73,0.00,,,0.02,,2013-10-04 21:54:00,
2013-10-04 18:03:00,85.0,75.0,29.96,East,94,0.0,0.0,73,0.00,,,0.02,,2013-10-04 22:03:00,
2013-10-04 18:23:00,83.0,77.0,29.96,East,94,0.0,0.0,81,0.00,,,0.00,,2013-10-04 22:23:00,
2013-10-04 18:52:00,83.0,76.0,29.96,East,94,0.0,0.0,80,0.00,,,0.00,,2013-10-04 22:52:00,
2013-10-04 19:22:00,82.0,76.0,29.97,East,94,0.0,0.0,83,0.00,,,0.00,,2013-10-04 23:22:00,
2013-10-04 19:53:00,81.0,76.0,29.97,East,94,0.0,0.0,84,0.00,,,0.00,,2013-10-04 23:53:00,
2013-10-04 20:22:00,80.0,75.0,29.97,East,94,0.0,0.0,85,0.00,,,0.00,,2013-10-05 00:22:00,
2013-10-04 20:32:00,80.0,75.0,29.97,East,94,0.0,0.0,85,0.00,,,0.00,,2013-10-05 00:32:00,
2013-10-04 20:42:00,80.0,75.0,29.97,East,94,0.0,0.0,85,0.00,,,0.00,,2013-10-05 00:42:00,
2013-10-04 20:53:00,78.0,73.0,29.98,East,94,0.0,0.0,85,0.00,,,0.00,,2013-10-05 00:53:00,
2013-10-04 21:02:00,78.0,73.0,29.98,East,94,0.0,0.0,85,0.00,,,0.00,,2013-10-05 01:02:00,
2013-10-04 21:22:00,78.0,73.0,29.99,East,94,0.0,0.0,84,0.00,,,0.00,,2013-10-05 01:22:00,
2013-10-04 21:32:00,78.0,73.0,29.99,East,94,0.0,0.0,84,0.00,,,0.00,,2013-10-05 01:32:00,
2013-10-04 21:43:00,78.0,73.0,29.99,East,94,0.0,0.0,84,0.00,,,0.00,,2013-10-05 01:43:00,
2013-10-04 21:52:00,78.0,72.0,30.01,East,94,0.0,1.0,83,0.00,,,0.00,,2013-10-05 01:52:00,
2013-10-04 22:22:00,78.0,72.0,30.02,ENE,72,0.0,1.0,82,0.00,,,0.00,,2013-10-05 02:22:00,
2013-10-04 22:32:00,78.0,72.0,30.02,ENE,72,0.0,1.0,82,0.00,,,0.00,,2013-10-05 02:32:00,
2013-10-04 23:23:00,77.0,71.0,30.03,ENE,63,0.0,0.0,83,0.00,,,0.00,,2013-10-05 03:23:00,
2013-10-04 23:34:00,77.0,71.0,30.03,ENE,63,0.0,0.0,83,0.00,,,0.00,,2013-10-05 03:34:00,
2013-10-04 23:55:00,77.0,72.0,30.03,ENE,63,0.0,1.0,84,0.00,,,0.00,,2013-10-05 03:55:00,